Location: Tucson
(32.2217°N, 110.9265°W)
Time: 23:26:11
(UTC-07:00)

N. Korean satellite - Pass Details

Date: 26 March 2019
Orbit: 457 x 508 km, 97.2° (Epoch: 19 April)

Event Time Altitude Azimuth Distance (km) Brightness Sun altitude
Rises 05:28:34 0° 37° (NE) 2,545 11.0 -11.6°
Reaches altitude 10° 05:31:43 10° 68° (ENE) 1,672 10.7 -11.0°
Maximum altitude 05:33:16 12° 94° (E) 1,533 10.4 -10.6°
Drops below altitude 10° 05:34:49 10° 120° (ESE) 1,680 10.1 -10.3°
Sets 05:37:59 0° 151° (SSE) 2,568 10.5 -9.7°
